User: anonymous   Login
Location: Sperry Observatory
(40.6664°N, 74.3236°W)
Time: 13:19:06
(UTC-04:00)
Language:

UOSAT-12 - Orbit

View from above orbital plane
View from above orbital plane
View from above satellite
View from above satellite

Ground track
Ground track

The orbit data is extracted from the following two-line orbital elements,

1 25693U 99021A   15085.44650315  .00000515  00000-0  85228-4 0  9993
2 25693 064.5548 113.1249 0046417 251.1880 209.4981 14.80367834859691
Epoch (UTC): 26 March 2015 10:42:57
Eccentricity: 0.0046417
inclination: 64.5548°
perigee height: 595 km
apogee height: 660 km
right ascension of ascending node: 113.1249°
argument of perigee: 251.1880°
revolutions per day: 14.80367834
mean anomaly at epoch: 209.4981°
orbit number at epoch: 85969

The dashed part of the orbit path shows where the satellite is in the earth's shadow,  

DLR